Zurück zum Katalog

CZ-6A DEB

AktivSSO
NORAD 56649·DEBRIS·🇨🇳 China

Gestartet Nov 11, 2022 von Taiyuan Satellite Launch Center

Loading…

Nächste Überflüge (nächste 24 Stunden)

TLE

AktuellSource: Space-Track

Epoche: Sep 12, 2026, 23:11 UTC

1 56649U 22151AFZ 26255.96629848  .00001210  00000-0  61009-3 0  9996
2 56649  98.8333 265.0868 0040800  69.0943 291.4592 14.17775725183295

Verfolge CZ-6A DEB in Echtzeit mit AllMySat

Download on the App Store